Change the Weather History Date:

Thursday, February 27, 2014

  Actual Average (KBLV) Record (KBLV)
Temperature  
Mean Temperature 24 °F -  
Max Temperature 28 °F 50 °F 76 °F (1981)
Min Temperature 19 °F 29 °F 2 °F (2015)
Degree Days  
Heating Degree Days 42    
Moisture  
Dew Point 6 °F    
Average Humidity 47    
Maximum Humidity 68    
Minimum Humidity 24    
Precipitation  
Precipitation 0.00 in - - ()
Sea Level Pressure  
Sea Level Pressure 30.08 in    
Wind  
Wind Speed 8 mph (NNW)    
Max Wind Speed 15 mph    
Max Gust Speed 21 mph    
Visibility 10 miles    
Events      
Averages and records for this station are not official NWS values.
T = Trace of Precipitation, MM = Missing Value Source: NWS Daily Summary

Daily Weather History Graph

Daily Weather History Graph

Search for Another Location

Airport or City:

Trip Planner

Search our weather history database for the weather conditions in past years. The results will help you decide how hot, cold, wet, or windy it might be!

Date:

Astronomy

Feb. 27, 2014 Rise Set
Actual Time 6:33 AM CST 5:50 PM CST
Civil Twilight 6:06 AM CST 6:16 PM CST
Nautical Twilight 5:36 AM CST 6:47 PM CST
Astronomical Twilight 5:05 AM CST 7:17 PM CST
Moon 5:04 AM CST (2/27) 4:16 PM CST (2/27)
Length of Visible Light 12h 09m
Length of Day
11h 16m
Waning Crescent, 4% of the Moon is Illuminated
Feb 27
Waning Crescent
Mar 1
New
Mar 8
First Quarter
Mar 16
Full
Mar 23
Last Quarter

Hourly Weather History & Observations

Time (CST) Temp. Windchill Dew Point Humidity Pressure Visibility Wind Dir Wind Speed Gust Speed Precip Events Conditions
12:15 AM 21.2 °F 12.6 °F 5.0 °F 50% 29.98 in 10.0 mi WSW 6.9 mph - N/A   Clear
12:35 AM 23.0 °F 14.7 °F 5.0 °F 46% 29.98 in 10.0 mi WSW 6.9 mph - N/A   Clear
12:55 AM 23.0 °F 13.9 °F 5.0 °F 46% 29.97 in 10.0 mi WSW 8.1 mph - N/A   Clear
1:20 AM 23.0 °F 13.1 °F 5.0 °F 46% 29.97 in 10.0 mi WSW 9.2 mph - N/A   Clear
1:35 AM 23.0 °F 13.9 °F 6.8 °F 50% 29.96 in 10.0 mi WSW 8.1 mph - N/A   Clear
1:55 AM 23.0 °F 14.7 °F 6.8 °F 50% 29.96 in 10.0 mi West 6.9 mph - N/A   Clear
2:15 AM 23.0 °F 15.8 °F 8.6 °F 54% 29.96 in 10.0 mi West 5.8 mph - N/A   Clear
2:35 AM 23.0 °F 14.7 °F 8.6 °F 54% 29.96 in 10.0 mi West 6.9 mph - N/A   Clear
2:55 AM 23.0 °F 11.1 °F 8.6 °F 54% 29.96 in 10.0 mi West 12.7 mph 17.3 mph N/A   Clear
3:15 AM 24.8 °F 14.0 °F 10.4 °F 54% 29.96 in 10.0 mi West 11.5 mph 17.3 mph N/A   Clear
3:35 AM 24.8 °F 14.0 °F 10.4 °F 54% 29.96 in 10.0 mi West 11.5 mph 20.7 mph N/A   Clear
3:55 AM 24.8 °F 14.0 °F 10.4 °F 54% 29.96 in 10.0 mi West 11.5 mph 19.6 mph N/A   Clear
4:15 AM 24.8 °F 14.6 °F 10.4 °F 54% 29.96 in 10.0 mi West 10.4 mph - N/A   Clear
4:35 AM 24.8 °F 14.0 °F 10.4 °F 54% 29.96 in 10.0 mi West 11.5 mph 17.3 mph N/A   Clear
4:55 AM 24.8 °F 15.3 °F 10.4 °F 54% 29.97 in 10.0 mi West 9.2 mph - N/A   Clear
5:15 AM 24.8 °F 15.3 °F 10.4 °F 54% 29.97 in 10.0 mi West 9.2 mph - N/A   Clear
5:35 AM 23.0 °F 13.1 °F 10.4 °F 59% 29.99 in 10.0 mi West 9.2 mph - N/A   Clear
6:00 AM 23.0 °F 13.9 °F 12.2 °F 63% 29.99 in 10.0 mi West 8.1 mph - N/A   Clear
6:15 AM 23.0 °F 14.7 °F 12.2 °F 63% 30.00 in 10.0 mi West 6.9 mph - N/A   Clear
6:35 AM 23.0 °F 15.8 °F 14.0 °F 68% 30.01 in 10.0 mi WNW 5.8 mph - N/A   Clear
6:55 AM 24.8 °F 16.1 °F 14.0 °F 64% 30.03 in 10.0 mi WNW 8.1 mph - N/A   Clear
7:15 AM 24.8 °F 16.9 °F 14.0 °F 64% 30.04 in 10.0 mi NW 6.9 mph - N/A   Scattered Clouds
7:35 AM 26.6 °F 18.2 °F 14.0 °F 59% 30.05 in 10.0 mi NW 8.1 mph - N/A   Scattered Clouds
7:55 AM 26.6 °F 15.7 °F 14.0 °F 59% 30.07 in 10.0 mi North 12.7 mph - N/A   Scattered Clouds
8:15 AM 24.8 °F 12.4 °F 14.0 °F 64% 30.09 in 10.0 mi North 15.0 mph 19.6 mph N/A   Scattered Clouds
8:35 AM 23.0 °F 10.6 °F 12.2 °F 63% 30.11 in 10.0 mi North 13.8 mph 20.7 mph N/A   Clear
8:55 AM 24.8 °F 15.3 °F 12.2 °F 59% 30.12 in 10.0 mi NNW 9.2 mph 17.3 mph N/A   Clear
9:15 AM 24.8 °F 13.4 °F 10.4 °F 54% 30.13 in 10.0 mi NNW 12.7 mph 19.6 mph N/A   Clear
9:35 AM 24.8 °F 13.4 °F 5.0 °F 43% 30.14 in 10.0 mi NW 12.7 mph - N/A   Clear
9:55 AM 26.6 °F 16.2 °F 3.2 °F 37% 30.15 in 10.0 mi NNW 11.5 mph 17.3 mph N/A   Clear
10:15 AM 26.6 °F 15.7 °F 1.4 °F 34% 30.15 in 10.0 mi North 12.7 mph 19.6 mph N/A   Clear
10:40 AM 26.6 °F 16.8 °F 3.2 °F 37% 30.16 in 10.0 mi NW 10.4 mph 17.3 mph N/A   Clear
10:55 AM 26.6 °F 16.8 °F 3.2 °F 37% 30.16 in 10.0 mi NNW 10.4 mph - N/A   Clear
11:15 AM 26.6 °F 17.5 °F -5.8 °F 24% 30.16 in 10.0 mi North 9.2 mph 18.4 mph N/A   Clear
11:35 AM 26.6 °F 17.5 °F -2.2 °F 29% 30.16 in 10.0 mi NNW 9.2 mph - N/A   Clear
11:55 AM 26.6 °F 16.8 °F -0.4 °F 31% 30.15 in 10.0 mi North 10.4 mph - N/A   Clear
12:15 PM 26.6 °F 17.5 °F -2.2 °F 29% 30.15 in 10.0 mi NNW 9.2 mph - N/A   Clear
12:35 PM 28.4 °F 20.4 °F -0.4 °F 29% 30.15 in 10.0 mi North 8.1 mph 18.4 mph N/A   Clear
12:55 PM 28.4 °F 19.7 °F -0.4 °F 29% 30.14 in 10.0 mi NNW 9.2 mph - N/A   Clear
1:15 PM 28.4 °F 21.2 °F 1.4 °F 31% 30.13 in 10.0 mi NNE 6.9 mph - N/A   Clear
1:35 PM 26.6 °F - -2.2 °F 29% 30.12 in 10.0 mi Calm Calm - N/A   Clear
1:55 PM 28.4 °F 21.2 °F 3.2 °F 34% 30.12 in 10.0 mi NNE 6.9 mph - N/A   Clear
2:15 PM 28.4 °F 21.2 °F 1.4 °F 31% 30.12 in 10.0 mi NW 6.9 mph - N/A   Clear
2:35 PM 28.4 °F 20.4 °F -0.4 °F 29% 30.12 in 10.0 mi NNE 8.1 mph - N/A   Clear
2:55 PM 28.4 °F 19.1 °F 1.4 °F 31% 30.11 in 10.0 mi NNE 10.4 mph 16.1 mph N/A   Clear
3:20 PM 28.4 °F 21.2 °F -0.4 °F 29% 30.12 in 10.0 mi North 6.9 mph - N/A   Clear
3:35 PM 28.4 °F 24.6 °F -0.4 °F 29% 30.11 in 10.0 mi NNW 3.5 mph - N/A   Clear
3:55 PM 28.4 °F 21.2 °F -0.4 °F 29% 30.12 in 10.0 mi NNE 6.9 mph - N/A   Clear
4:15 PM 28.4 °F - -0.4 °F 29% 30.12 in 10.0 mi Calm Calm - N/A   Clear
4:35 PM 26.6 °F 20.0 °F 1.4 °F 34% 30.11 in 10.0 mi NE 5.8 mph - N/A   Clear
4:55 PM 26.6 °F 19.1 °F 1.4 °F 34% 30.11 in 10.0 mi NE 6.9 mph - N/A   Clear
5:15 PM 26.6 °F 19.1 °F 1.4 °F 34% 30.11 in 10.0 mi NNE 6.9 mph - N/A   Clear
5:35 PM 26.6 °F 20.0 °F 3.2 °F 37% 30.11 in 10.0 mi NNE 5.8 mph - N/A   Clear
5:55 PM 23.0 °F 15.8 °F 3.2 °F 43% 30.12 in 10.0 mi NNE 5.8 mph - N/A   Clear
6:15 PM 23.0 °F 14.7 °F 3.2 °F 43% 30.12 in 10.0 mi NNE 6.9 mph - N/A   Clear
6:35 PM 23.0 °F 17.0 °F 5.0 °F 46% 30.13 in 10.0 mi NE 4.6 mph - N/A   Clear
6:55 PM 23.0 °F 14.7 °F 5.0 °F 46% 30.13 in 10.0 mi NE 6.9 mph - N/A   Clear
7:15 PM 23.0 °F 15.8 °F 5.0 °F 46% 30.13 in 10.0 mi NE 5.8 mph - N/A   Clear
7:35 PM 23.0 °F 15.8 °F 5.0 °F 46% 30.13 in 10.0 mi NE 5.8 mph - N/A   Clear
8:00 PM 21.2 °F 12.6 °F 6.8 °F 54% 30.12 in 10.0 mi ENE 6.9 mph - N/A   Clear
8:15 PM 21.2 °F 10.9 °F 8.6 °F 58% 30.13 in 10.0 mi East 9.2 mph - N/A   Clear
8:35 PM 21.2 °F 10.9 °F 6.8 °F 54% 30.13 in 10.0 mi ENE 9.2 mph - N/A   Clear
8:55 PM 21.2 °F 12.6 °F 6.8 °F 54% 30.13 in 10.0 mi ENE 6.9 mph - N/A   Clear
9:15 PM 21.2 °F 13.6 °F 6.8 °F 54% 30.14 in 10.0 mi ENE 5.8 mph - N/A   Clear
9:35 PM 21.2 °F 13.6 °F 8.6 °F 58% 30.14 in 10.0 mi ENE 5.8 mph - N/A   Clear
9:55 PM 21.2 °F 13.6 °F 8.6 °F 58% 30.14 in 10.0 mi East 5.8 mph - N/A   Clear
10:15 PM 19.4 °F 9.5 °F 8.6 °F 63% 30.13 in 10.0 mi East 8.1 mph - N/A   Clear
10:35 PM 19.4 °F 10.4 °F 6.8 °F 58% 30.14 in 10.0 mi East 6.9 mph - N/A   Clear
10:55 PM 19.4 °F 9.5 °F 6.8 °F 58% 30.14 in 10.0 mi ENE 8.1 mph - N/A   Clear
11:15 PM 19.4 °F 11.5 °F 8.6 °F 63% 30.14 in 10.0 mi East 5.8 mph - N/A   Clear
11:35 PM 19.4 °F 9.5 °F 8.6 °F 63% 30.14 in 10.0 mi East 8.1 mph - N/A   Scattered Clouds
11:55 PM 19.4 °F 9.5 °F 8.6 °F 63% 30.13 in 10.0 mi East 8.1 mph - N/A   Clear